Year,Month,Day,Hour,Minute,Value (Times are PST for temperature in C)
2018,07,17,00,00,17.40
2018,07,17,00,01,17.30
2018,07,17,00,02,17.30
2018,07,17,00,03,17.30
2018,07,17,00,04,17.30
2018,07,17,00,05,17.20
2018,07,17,00,06,17.10
2018,07,17,00,07,17.10
2018,07,17,00,08,17.00
2018,07,17,00,09,17.00
2018,07,17,00,10,16.90
2018,07,17,00,11,16.90
2018,07,17,00,12,16.90
2018,07,17,00,13,16.80
2018,07,17,00,14,16.80
2018,07,17,00,15,16.80
2018,07,17,00,16,16.70
2018,07,17,00,17,16.70
2018,07,17,00,18,16.70
2018,07,17,00,19,16.70
2018,07,17,00,20,16.70
2018,07,17,00,21,16.70
2018,07,17,00,22,16.60
2018,07,17,00,23,16.60
2018,07,17,00,24,16.60
2018,07,17,00,25,16.60
2018,07,17,00,26,16.50
2018,07,17,00,27,16.40
2018,07,17,00,28,16.40
2018,07,17,00,29,16.40
2018,07,17,00,30,16.40
2018,07,17,00,31,16.40
2018,07,17,00,32,16.40
2018,07,17,00,33,16.40
2018,07,17,00,34,16.40
2018,07,17,00,35,16.40
2018,07,17,00,36,16.40
2018,07,17,00,37,16.30
2018,07,17,00,38,16.30
2018,07,17,00,39,16.30
2018,07,17,00,40,16.30
2018,07,17,00,41,16.30
2018,07,17,00,42,16.20
2018,07,17,00,43,16.20
2018,07,17,00,44,16.20
2018,07,17,00,45,16.20
2018,07,17,00,46,16.20
2018,07,17,00,47,16.10
2018,07,17,00,48,16.10
2018,07,17,00,49,16.10
2018,07,17,00,50,16.10
2018,07,17,00,51,16.10
2018,07,17,00,52,16.10
2018,07,17,00,53,16.10
2018,07,17,00,54,16.10
2018,07,17,00,55,16.10
2018,07,17,00,56,16.10
2018,07,17,00,57,16.10
2018,07,17,00,58,16.10
2018,07,17,00,59,16.10
2018,07,17,01,00,16.10
2018,07,17,01,01,16.10
2018,07,17,01,02,16.10
2018,07,17,01,03,16.00
2018,07,17,01,04,15.90
2018,07,17,01,05,15.90
2018,07,17,01,06,15.90
2018,07,17,01,07,15.90
2018,07,17,01,08,15.90
2018,07,17,01,09,15.90
2018,07,17,01,10,15.90
2018,07,17,01,11,15.90
2018,07,17,01,12,15.90
2018,07,17,01,13,15.90
2018,07,17,01,14,15.80
2018,07,17,01,15,15.80
2018,07,17,01,16,15.80
2018,07,17,01,17,15.80
2018,07,17,01,18,15.80
2018,07,17,01,19,15.80
2018,07,17,01,20,15.80
2018,07,17,01,21,15.80
2018,07,17,01,22,15.80
2018,07,17,01,23,15.80
2018,07,17,01,24,15.80
2018,07,17,01,25,15.80
2018,07,17,01,26,15.80
2018,07,17,01,27,15.80
2018,07,17,01,28,15.80
2018,07,17,01,29,15.80
2018,07,17,01,30,15.80
2018,07,17,01,31,15.80
2018,07,17,01,32,15.80
2018,07,17,01,33,15.80
2018,07,17,01,34,15.80
2018,07,17,01,35,15.80
2018,07,17,01,36,15.80
2018,07,17,01,37,15.70
2018,07,17,01,38,15.70
2018,07,17,01,39,15.70
2018,07,17,01,40,15.70
2018,07,17,01,41,15.70
2018,07,17,01,42,15.70
2018,07,17,01,43,15.70
2018,07,17,01,44,15.70
2018,07,17,01,45,15.70
2018,07,17,01,46,15.60
2018,07,17,01,47,15.60
2018,07,17,01,48,15.60
2018,07,17,01,49,15.60
2018,07,17,01,50,15.60
2018,07,17,01,51,15.60
2018,07,17,01,52,15.60
2018,07,17,01,53,15.50
2018,07,17,01,54,15.50
2018,07,17,01,55,15.50
2018,07,17,01,56,15.50
2018,07,17,01,57,15.50
2018,07,17,01,58,15.50
2018,07,17,01,59,15.50
2018,07,17,02,00,15.50
2018,07,17,02,01,15.50
2018,07,17,02,02,15.50
2018,07,17,02,03,15.50
2018,07,17,02,04,15.40
2018,07,17,02,05,15.40
2018,07,17,02,06,15.40
2018,07,17,02,07,15.40
2018,07,17,02,08,15.40
2018,07,17,02,09,15.40
2018,07,17,02,10,15.40
2018,07,17,02,11,15.30
2018,07,17,02,12,15.30
2018,07,17,02,13,15.30
2018,07,17,02,14,15.30
2018,07,17,02,15,15.30
2018,07,17,02,16,15.30
2018,07,17,02,17,15.30
2018,07,17,02,18,15.30
2018,07,17,02,19,15.30
2018,07,17,02,20,15.30
2018,07,17,02,21,15.20
2018,07,17,02,22,15.20
2018,07,17,02,23,15.20
2018,07,17,02,24,15.20
2018,07,17,02,25,15.20
2018,07,17,02,26,15.10
2018,07,17,02,27,15.10
2018,07,17,02,28,15.10
2018,07,17,02,29,15.10
2018,07,17,02,30,15.10
2018,07,17,02,31,15.10
2018,07,17,02,32,15.00
2018,07,17,02,33,15.00
2018,07,17,02,34,15.00
2018,07,17,02,35,15.00
2018,07,17,02,36,15.00
2018,07,17,02,37,15.00
2018,07,17,02,38,14.90
2018,07,17,02,39,14.90
2018,07,17,02,40,14.90
2018,07,17,02,41,14.90
2018,07,17,02,42,14.90
2018,07,17,02,43,14.90
2018,07,17,02,44,14.90
2018,07,17,02,45,14.90
2018,07,17,02,46,14.90
2018,07,17,02,47,14.80
2018,07,17,02,48,14.80
2018,07,17,02,49,14.80
2018,07,17,02,50,14.80
2018,07,17,02,51,14.80
2018,07,17,02,52,14.80
2018,07,17,02,53,14.80
2018,07,17,02,54,14.80
2018,07,17,02,55,14.80
2018,07,17,02,56,14.80
2018,07,17,02,57,14.80
2018,07,17,02,58,14.80
2018,07,17,02,59,14.80
2018,07,17,03,00,14.70
2018,07,17,03,01,14.70
2018,07,17,03,02,14.70
2018,07,17,03,03,14.70
2018,07,17,03,04,14.60
2018,07,17,03,05,14.60
2018,07,17,03,06,14.60
2018,07,17,03,07,14.60
2018,07,17,03,08,14.60
2018,07,17,03,09,14.60
2018,07,17,03,10,14.60
2018,07,17,03,11,14.60
2018,07,17,03,12,14.60
2018,07,17,03,13,14.60
2018,07,17,03,14,14.60
2018,07,17,03,15,14.60
2018,07,17,03,16,14.60
2018,07,17,03,17,14.60
2018,07,17,03,18,14.60
2018,07,17,03,19,14.60
2018,07,17,03,20,14.50
2018,07,17,03,21,14.50
2018,07,17,03,22,14.50
2018,07,17,03,23,14.50
2018,07,17,03,24,14.50
2018,07,17,03,25,14.50
2018,07,17,03,26,14.50
2018,07,17,03,27,14.50
2018,07,17,03,28,14.50
2018,07,17,03,29,14.50
2018,07,17,03,30,14.50
2018,07,17,03,31,14.40
2018,07,17,03,32,14.40
2018,07,17,03,33,14.40
2018,07,17,03,34,14.40
2018,07,17,03,35,14.40
2018,07,17,03,36,14.30
2018,07,17,03,37,14.30
2018,07,17,03,38,14.30
2018,07,17,03,39,14.30
2018,07,17,03,40,14.20
2018,07,17,03,41,14.20
2018,07,17,03,42,14.20
2018,07,17,03,43,14.20
2018,07,17,03,44,14.20
2018,07,17,03,45,14.20
2018,07,17,03,46,14.20
2018,07,17,03,47,14.20
2018,07,17,03,48,14.20
2018,07,17,03,49,14.10
2018,07,17,03,50,14.10
2018,07,17,03,51,14.10
2018,07,17,03,52,14.10
2018,07,17,03,53,14.10
2018,07,17,03,54,14.00
2018,07,17,03,55,14.00
2018,07,17,03,56,14.00
2018,07,17,03,57,14.00
2018,07,17,03,58,14.00
2018,07,17,03,59,13.90
2018,07,17,04,00,13.90
2018,07,17,04,01,13.90
2018,07,17,04,02,13.90
2018,07,17,04,03,13.90
2018,07,17,04,04,13.90
2018,07,17,04,05,13.80
2018,07,17,04,06,13.80
2018,07,17,04,07,13.80
2018,07,17,04,08,13.80
2018,07,17,04,09,13.80
2018,07,17,04,10,13.80
2018,07,17,04,11,13.70
2018,07,17,04,12,13.70
2018,07,17,04,13,13.70
2018,07,17,04,14,13.70
2018,07,17,04,15,13.70
2018,07,17,04,16,13.70
2018,07,17,04,17,13.70
2018,07,17,04,18,13.70
2018,07,17,04,19,13.70
2018,07,17,04,20,13.70
2018,07,17,04,21,13.70
2018,07,17,04,22,13.70
2018,07,17,04,23,13.70
2018,07,17,04,24,13.70
2018,07,17,04,25,13.70
2018,07,17,04,26,13.70
2018,07,17,04,27,13.70
2018,07,17,04,28,13.70
2018,07,17,04,29,13.70
2018,07,17,04,30,13.70
2018,07,17,04,31,13.70
2018,07,17,04,32,13.70
2018,07,17,04,33,13.70
2018,07,17,04,34,13.60
2018,07,17,04,35,13.60
2018,07,17,04,36,13.60
2018,07,17,04,37,13.60
2018,07,17,04,38,13.60
2018,07,17,04,39,13.60
2018,07,17,04,40,13.50
2018,07,17,04,41,13.50
2018,07,17,04,42,13.50
2018,07,17,04,43,13.50
2018,07,17,04,44,13.50
2018,07,17,04,45,13.50
2018,07,17,04,46,13.50
2018,07,17,04,47,13.50
2018,07,17,04,48,13.50
2018,07,17,04,49,13.50
2018,07,17,04,50,13.50
2018,07,17,04,51,13.50
2018,07,17,04,52,13.50
2018,07,17,04,53,13.50
2018,07,17,04,54,13.50
2018,07,17,04,55,13.50
2018,07,17,04,56,13.40
2018,07,17,04,57,13.40
2018,07,17,04,58,13.40
2018,07,17,04,59,13.40
2018,07,17,05,00,13.40
2018,07,17,05,01,13.40
2018,07,17,05,02,13.40
2018,07,17,05,03,13.40
2018,07,17,05,04,13.40
2018,07,17,05,05,13.40
2018,07,17,05,06,13.40
2018,07,17,05,07,13.40
2018,07,17,05,08,13.40
2018,07,17,05,09,13.40
2018,07,17,05,10,13.40
2018,07,17,05,11,13.40
2018,07,17,05,12,13.40
2018,07,17,05,13,13.40
2018,07,17,05,14,13.40
2018,07,17,05,15,13.40
2018,07,17,05,16,13.40
2018,07,17,05,17,13.40
2018,07,17,05,18,13.40
2018,07,17,05,19,13.40
2018,07,17,05,20,13.40
2018,07,17,05,21,13.40
2018,07,17,05,22,13.40
2018,07,17,05,23,13.40
2018,07,17,05,24,13.40
2018,07,17,05,25,13.30
2018,07,17,05,26,13.30
2018,07,17,05,27,13.30
2018,07,17,05,28,13.30
2018,07,17,05,29,13.30
2018,07,17,05,30,13.30
2018,07,17,05,31,13.30
2018,07,17,05,32,13.30
2018,07,17,05,33,13.30
2018,07,17,05,34,13.30
2018,07,17,05,35,13.30
2018,07,17,05,36,13.30
2018,07,17,05,37,13.30
2018,07,17,05,38,13.30
2018,07,17,05,39,13.30
2018,07,17,05,40,13.30
2018,07,17,05,41,13.30
2018,07,17,05,42,13.30
2018,07,17,05,43,13.30
2018,07,17,05,44,13.30
2018,07,17,05,45,13.30
2018,07,17,05,46,13.20
2018,07,17,05,47,13.20
2018,07,17,05,48,13.20
2018,07,17,05,49,13.20
2018,07,17,05,50,13.20
2018,07,17,05,51,13.20
2018,07,17,05,52,13.30
2018,07,17,05,53,13.30
2018,07,17,05,54,13.30
2018,07,17,05,55,13.30
2018,07,17,05,56,13.30
2018,07,17,05,57,13.30
2018,07,17,05,58,13.30
2018,07,17,05,59,13.30
2018,07,17,06,00,13.30
2018,07,17,06,01,13.30
2018,07,17,06,02,13.30
2018,07,17,06,03,13.30
2018,07,17,06,04,13.30
2018,07,17,06,05,13.30
2018,07,17,06,06,13.30
2018,07,17,06,07,13.30
2018,07,17,06,08,13.30
2018,07,17,06,09,13.30
2018,07,17,06,10,13.30
2018,07,17,06,11,13.30
2018,07,17,06,12,13.40
2018,07,17,06,13,13.40
2018,07,17,06,14,13.40
2018,07,17,06,15,13.50
2018,07,17,06,16,13.50
2018,07,17,06,17,13.60
2018,07,17,06,18,13.60
2018,07,17,07,02,17.70
2018,07,17,07,03,17.70
2018,07,17,07,04,17.80
2018,07,17,07,05,17.90
2018,07,17,07,06,18.00
2018,07,17,07,07,18.10
2018,07,17,07,08,18.20
2018,07,17,07,09,18.20
2018,07,17,07,10,18.30
2018,07,17,07,41,18.40
2018,07,17,07,42,18.40
2018,07,17,07,43,18.50
2018,07,17,07,44,18.50
2018,07,17,07,45,18.60
2018,07,17,07,46,18.60
2018,07,17,07,47,18.70
2018,07,17,07,48,18.80
2018,07,17,07,49,18.90
2018,07,17,07,50,18.90
2018,07,17,07,51,19.00
2018,07,17,07,52,19.10
2018,07,17,07,53,19.10
2018,07,17,07,54,19.10
2018,07,17,07,55,19.20
2018,07,17,07,56,19.20
2018,07,17,07,57,19.30
2018,07,17,07,58,19.30
2018,07,17,07,59,19.30
2018,07,17,08,00,19.30
2018,07,17,08,01,19.30
2018,07,17,08,02,19.40
2018,07,17,08,03,19.50
2018,07,17,08,04,19.50
2018,07,17,08,05,19.60
2018,07,17,08,06,19.60
2018,07,17,08,07,19.70
2018,07,17,08,08,19.70
2018,07,17,08,09,19.80
2018,07,17,08,10,19.90
2018,07,17,08,11,20.00
2018,07,17,08,12,20.20
2018,07,17,08,13,20.30
2018,07,17,08,14,20.50
2018,07,17,08,15,20.60
2018,07,17,08,16,20.70
2018,07,17,08,17,20.80
2018,07,17,08,18,20.90
2018,07,17,08,19,21.00
2018,07,17,08,20,21.00
2018,07,17,08,21,21.10
2018,07,17,08,22,21.20
2018,07,17,08,23,21.30
2018,07,17,08,24,21.30
2018,07,17,08,25,21.30
2018,07,17,08,26,21.30
2018,07,17,08,27,21.30
2018,07,17,08,28,21.30
2018,07,17,08,29,21.30
2018,07,17,08,30,21.30
2018,07,17,08,31,21.30
2018,07,17,08,32,21.30
2018,07,17,08,33,21.30
2018,07,17,08,34,21.30
2018,07,17,08,35,21.30
2018,07,17,08,36,21.30
2018,07,17,08,37,21.30
2018,07,17,08,38,21.30
2018,07,17,08,39,21.30
2018,07,17,08,40,21.30
2018,07,17,08,41,21.30
2018,07,17,08,42,21.30
2018,07,17,08,43,21.30
2018,07,17,08,44,21.30
2018,07,17,08,45,21.30
2018,07,17,08,46,21.30
2018,07,17,08,47,21.30
2018,07,17,08,48,21.40
2018,07,17,08,49,21.40
2018,07,17,08,50,21.40
2018,07,17,08,51,21.50
2018,07,17,08,52,21.60
2018,07,17,08,53,21.60
2018,07,17,08,54,21.60
2018,07,17,08,55,21.60
2018,07,17,08,56,21.60
2018,07,17,08,57,21.60
2018,07,17,08,58,21.60
2018,07,17,08,59,21.40
2018,07,17,09,00,21.50
2018,07,17,09,01,21.50
2018,07,17,09,02,21.40
2018,07,17,09,03,21.40
2018,07,17,09,04,21.40
2018,07,17,09,05,21.40
2018,07,17,09,06,21.40
2018,07,17,09,07,21.40
2018,07,17,09,08,21.40
2018,07,17,09,09,21.50
2018,07,17,09,10,21.60
2018,07,17,09,11,21.60
2018,07,17,09,12,21.60
2018,07,17,09,13,21.70
2018,07,17,09,14,21.70
2018,07,17,09,15,21.80
2018,07,17,09,16,21.90
2018,07,17,09,17,22.00
2018,07,17,09,18,22.10
2018,07,17,09,19,22.20
2018,07,17,09,20,22.20
2018,07,17,09,21,22.20
2018,07,17,09,22,22.20
2018,07,17,09,23,22.20
2018,07,17,09,24,22.20
2018,07,17,09,25,22.10
2018,07,17,09,26,22.20
2018,07,17,09,27,22.10
2018,07,17,09,28,22.10
2018,07,17,09,29,22.10
2018,07,17,09,30,22.20
2018,07,17,09,31,22.20
2018,07,17,09,32,22.40
2018,07,17,09,33,22.50
2018,07,17,09,34,22.50
2018,07,17,09,35,22.50
2018,07,17,09,36,22.60
2018,07,17,09,37,22.50
2018,07,17,09,38,22.50
2018,07,17,09,39,22.50
2018,07,17,09,40,22.60
2018,07,17,09,41,22.60
2018,07,17,09,42,22.60
2018,07,17,09,43,22.60
2018,07,17,09,44,22.60
2018,07,17,09,45,22.60
2018,07,17,09,46,22.60
2018,07,17,09,47,22.70
2018,07,17,09,48,22.60
2018,07,17,09,49,22.60
2018,07,17,09,50,22.60
2018,07,17,09,51,22.70
2018,07,17,09,52,22.80
2018,07,17,09,53,22.90
2018,07,17,09,54,22.90
2018,07,17,09,55,22.90
2018,07,17,09,56,22.90
2018,07,17,09,57,22.80
2018,07,17,09,58,22.80
2018,07,17,09,59,22.70
2018,07,17,10,00,22.70
2018,07,17,10,01,22.80
2018,07,17,10,02,22.90
2018,07,17,10,03,22.90
2018,07,17,10,04,22.80
2018,07,17,10,05,22.70
2018,07,17,10,06,22.60
2018,07,17,10,07,22.50
2018,07,17,10,08,22.40
2018,07,17,10,09,22.30
2018,07,17,10,10,22.20
2018,07,17,10,11,22.10
2018,07,17,10,12,22.00
2018,07,17,10,13,22.00
2018,07,17,10,14,21.90
2018,07,17,10,15,21.80
2018,07,17,10,16,21.80
2018,07,17,10,17,21.90
2018,07,17,10,18,21.90
2018,07,17,10,19,22.00
2018,07,17,10,20,22.00
2018,07,17,10,21,22.00
2018,07,17,10,22,22.00
2018,07,17,10,23,22.00
2018,07,17,10,24,21.90
2018,07,17,10,25,21.90
2018,07,17,10,26,21.90
2018,07,17,10,27,21.90
2018,07,17,10,28,21.90
2018,07,17,10,29,21.90
2018,07,17,10,30,21.90
2018,07,17,10,31,21.90
2018,07,17,10,32,21.90
2018,07,17,10,33,21.80
2018,07,17,10,34,21.70
2018,07,17,10,35,21.60
2018,07,17,10,36,21.60
2018,07,17,10,37,21.60
2018,07,17,10,38,21.60
2018,07,17,10,39,21.60
2018,07,17,10,40,21.60
2018,07,17,10,41,21.70
2018,07,17,10,42,21.70
2018,07,17,10,43,21.80
2018,07,17,10,44,21.80
2018,07,17,10,45,21.80
2018,07,17,10,46,21.90
2018,07,17,10,47,21.90
2018,07,17,10,48,22.00
2018,07,17,10,49,21.90
2018,07,17,10,50,21.90
2018,07,17,10,51,21.90
2018,07,17,10,52,21.80
2018,07,17,10,53,21.70
2018,07,17,10,54,21.70
2018,07,17,10,55,21.70
2018,07,17,10,56,21.80
2018,07,17,10,57,21.90
2018,07,17,10,58,21.90
2018,07,17,10,59,22.00
2018,07,17,11,00,22.00
2018,07,17,11,01,22.00
2018,07,17,11,02,22.00
2018,07,17,11,03,22.00
2018,07,17,11,04,21.90
2018,07,17,11,05,21.80
2018,07,17,11,06,21.80
2018,07,17,11,07,21.90
2018,07,17,11,08,21.90
2018,07,17,11,09,21.90
2018,07,17,11,10,22.00
2018,07,17,11,11,22.00
2018,07,17,11,12,22.00
2018,07,17,11,13,22.00
2018,07,17,11,14,22.00
2018,07,17,11,15,22.00
2018,07,17,11,16,22.00
2018,07,17,11,17,22.00
2018,07,17,11,18,21.90
2018,07,17,11,19,22.00
2018,07,17,11,20,22.00
2018,07,17,11,21,21.90
2018,07,17,11,22,21.80
2018,07,17,11,23,21.70
2018,07,17,11,24,21.70
2018,07,17,11,25,21.60
2018,07,17,11,26,21.60
2018,07,17,11,27,21.70
2018,07,17,11,28,21.70
2018,07,17,11,29,21.80
2018,07,17,11,30,21.90
2018,07,17,11,31,22.00
2018,07,17,11,32,21.90
2018,07,17,11,33,21.90
2018,07,17,11,34,21.80
2018,07,17,11,35,21.80
2018,07,17,11,36,21.90
2018,07,17,11,37,22.00
2018,07,17,11,38,22.00
2018,07,17,11,39,22.10
2018,07,17,11,40,22.10
2018,07,17,11,41,22.10
2018,07,17,11,42,22.10
2018,07,17,11,43,22.20
2018,07,17,11,44,22.20
2018,07,17,11,45,22.20
2018,07,17,11,46,22.30
2018,07,17,11,47,22.40
2018,07,17,11,48,22.40
2018,07,17,11,49,22.40
2018,07,17,11,50,22.50
2018,07,17,11,51,22.50
2018,07,17,11,52,22.50
2018,07,17,11,53,22.50
2018,07,17,11,54,22.50
2018,07,17,11,55,22.60
2018,07,17,11,56,22.80
2018,07,17,11,57,22.90
2018,07,17,11,58,22.90
2018,07,17,11,59,22.90
2018,07,17,12,00,22.90
2018,07,17,12,01,23.10
2018,07,17,12,02,23.20
2018,07,17,12,03,23.30
2018,07,17,12,04,23.30
2018,07,17,12,05,23.30
2018,07,17,12,06,23.20
2018,07,17,12,07,23.20
2018,07,17,12,08,23.20
2018,07,17,12,09,23.30
2018,07,17,12,10,23.30
2018,07,17,12,11,23.30
2018,07,17,12,12,23.40
2018,07,17,12,13,23.50
2018,07,17,12,14,23.70
2018,07,17,12,15,23.70
2018,07,17,12,16,23.70
2018,07,17,12,17,23.60
2018,07,17,12,18,23.40
2018,07,17,12,19,23.30
2018,07,17,12,20,23.30
2018,07,17,12,21,23.20
2018,07,17,12,22,23.20
2018,07,17,12,23,23.30
2018,07,17,12,24,23.30
2018,07,17,12,25,23.40
2018,07,17,12,26,23.50
2018,07,17,12,27,23.60
2018,07,17,12,28,23.60
2018,07,17,12,29,23.80
2018,07,17,12,30,23.90
2018,07,17,12,31,24.10
2018,07,17,12,32,24.20
2018,07,17,12,33,24.30
2018,07,17,12,34,24.30
2018,07,17,12,35,24.30
2018,07,17,12,36,24.30
2018,07,17,12,37,24.40
2018,07,17,12,38,24.40
2018,07,17,12,39,24.40
2018,07,17,12,40,24.50
2018,07,17,12,41,24.60
2018,07,17,12,42,24.70
2018,07,17,12,43,24.70
2018,07,17,12,44,24.60
2018,07,17,12,45,24.50
2018,07,17,12,46,24.60
2018,07,17,12,47,24.60
2018,07,17,12,48,24.60
2018,07,17,12,49,24.70
2018,07,17,12,50,24.80
2018,07,17,12,51,24.80
2018,07,17,12,52,24.90
2018,07,17,12,53,25.00
2018,07,17,12,54,25.00
2018,07,17,12,55,25.00
2018,07,17,12,56,24.70
2018,07,17,12,57,24.50
2018,07,17,12,58,24.50
2018,07,17,12,59,24.60
2018,07,17,13,00,24.60
2018,07,17,13,01,24.70
2018,07,17,13,02,24.70
2018,07,17,13,03,24.70
2018,07,17,13,04,24.70
2018,07,17,13,05,24.80
2018,07,17,13,06,24.80
2018,07,17,13,07,24.70
2018,07,17,13,08,24.70
2018,07,17,13,09,24.80
2018,07,17,13,10,24.80
2018,07,17,13,11,24.90
2018,07,17,13,12,25.00
2018,07,17,13,13,25.00
2018,07,17,13,14,25.10
2018,07,17,13,15,25.00
2018,07,17,13,16,25.00
2018,07,17,13,17,25.10
2018,07,17,13,18,25.20
2018,07,17,13,19,25.20
2018,07,17,13,20,25.30
2018,07,17,13,21,25.30
2018,07,17,13,22,25.30
2018,07,17,13,23,25.40
2018,07,17,13,24,25.40
2018,07,17,13,25,25.40
2018,07,17,13,26,25.20
2018,07,17,13,27,25.00
2018,07,17,13,28,25.10
2018,07,17,13,29,25.20
2018,07,17,13,30,25.10
2018,07,17,13,31,25.10
2018,07,17,13,32,25.10
2018,07,17,13,33,25.10
2018,07,17,13,34,25.00
2018,07,17,13,35,25.00
2018,07,17,13,36,25.00
2018,07,17,13,37,25.10
2018,07,17,13,38,25.10
2018,07,17,13,39,25.10
2018,07,17,13,40,25.10
2018,07,17,13,41,25.10
2018,07,17,13,42,25.10
2018,07,17,13,43,25.10
2018,07,17,13,44,25.30
2018,07,17,13,45,25.40
2018,07,17,13,46,25.50
2018,07,17,13,47,25.50
2018,07,17,13,48,25.40
2018,07,17,13,49,25.40
2018,07,17,13,50,25.40
2018,07,17,13,51,25.40
2018,07,17,13,52,25.50
2018,07,17,13,53,25.50
2018,07,17,13,54,25.40
2018,07,17,13,55,25.40
2018,07,17,13,56,25.30
2018,07,17,13,57,25.40
2018,07,17,13,58,25.40
2018,07,17,13,59,25.50
2018,07,17,14,00,25.60
2018,07,17,14,01,25.60
2018,07,17,14,02,25.70
2018,07,17,14,03,25.70
2018,07,17,14,04,25.60
2018,07,17,14,05,25.70
2018,07,17,14,06,25.70
2018,07,17,14,07,25.70
2018,07,17,14,08,25.70
2018,07,17,14,09,25.70
2018,07,17,14,10,25.70
2018,07,17,14,11,25.70
2018,07,17,14,12,25.80
2018,07,17,14,13,25.90
2018,07,17,14,14,26.00
2018,07,17,14,15,26.10
2018,07,17,14,16,26.10
2018,07,17,14,17,26.10
2018,07,17,14,18,26.10
2018,07,17,14,19,26.00
2018,07,17,14,20,25.90
2018,07,17,14,21,26.10
2018,07,17,14,22,26.10
2018,07,17,14,23,26.10
2018,07,17,14,24,26.00
2018,07,17,14,25,25.90
2018,07,17,14,26,25.90
2018,07,17,14,27,25.80
2018,07,17,14,28,25.80
2018,07,17,14,29,25.90
2018,07,17,14,30,25.90
2018,07,17,14,31,25.90
2018,07,17,14,32,25.90
2018,07,17,14,33,25.90
2018,07,17,14,34,25.70
2018,07,17,14,35,25.70
2018,07,17,14,36,25.60
2018,07,17,14,37,25.60
2018,07,17,14,38,25.60
2018,07,17,14,39,25.60
2018,07,17,14,40,25.60
2018,07,17,14,41,25.60
2018,07,17,14,42,25.70
2018,07,17,14,43,25.80
2018,07,17,14,44,25.90
2018,07,17,14,45,25.90
2018,07,17,14,46,25.90
2018,07,17,14,47,25.70
2018,07,17,14,48,25.70
2018,07,17,14,49,25.80
2018,07,17,14,50,25.80
2018,07,17,14,51,25.90
2018,07,17,14,52,26.00
2018,07,17,14,53,26.10
2018,07,17,14,54,26.00
2018,07,17,14,55,26.00
2018,07,17,14,56,26.00
2018,07,17,14,57,26.00
2018,07,17,14,58,26.10
2018,07,17,14,59,26.10
2018,07,17,15,00,26.20
2018,07,17,15,01,26.30
2018,07,17,15,02,26.30
2018,07,17,15,03,26.40
2018,07,17,15,04,26.40
2018,07,17,15,05,26.40
2018,07,17,15,06,26.40
2018,07,17,15,07,26.30
2018,07,17,15,08,26.30
2018,07,17,15,09,26.30
2018,07,17,15,10,26.40
2018,07,17,15,11,26.40
2018,07,17,15,12,26.40
2018,07,17,15,13,26.20
2018,07,17,15,14,26.00
2018,07,17,15,15,26.00
2018,07,17,15,16,26.00
2018,07,17,15,17,26.20
2018,07,17,15,18,26.40
2018,07,17,15,19,26.40
2018,07,17,15,20,26.40
2018,07,17,15,21,26.40
2018,07,17,15,22,26.40
2018,07,17,15,23,26.40
2018,07,17,15,24,26.50
2018,07,17,15,25,26.60
2018,07,17,15,26,26.60
2018,07,17,15,27,26.60
2018,07,17,15,28,26.70
2018,07,17,15,29,26.70
2018,07,17,15,30,26.70
2018,07,17,15,31,26.60
2018,07,17,15,32,26.60
2018,07,17,15,33,26.60
2018,07,17,15,34,26.60
2018,07,17,15,35,26.60
2018,07,17,15,36,26.60
2018,07,17,15,37,26.50
2018,07,17,15,38,26.40
2018,07,17,15,39,26.50
2018,07,17,15,40,26.60
2018,07,17,15,41,26.50
2018,07,17,15,42,26.40
2018,07,17,15,43,26.40
2018,07,17,15,44,26.30
2018,07,17,15,45,26.40
2018,07,17,15,46,26.40
2018,07,17,15,47,26.40
2018,07,17,15,48,26.50
2018,07,17,15,49,26.60
2018,07,17,15,50,26.60
2018,07,17,15,51,26.70
2018,07,17,15,52,26.70
2018,07,17,15,53,26.60
2018,07,17,15,54,26.70
2018,07,17,15,55,26.70
2018,07,17,15,56,26.60
2018,07,17,15,57,26.60
2018,07,17,15,58,26.60
2018,07,17,15,59,26.70
2018,07,17,16,00,26.80
2018,07,17,16,01,26.90
2018,07,17,16,02,26.90
2018,07,17,16,03,26.90
2018,07,17,16,04,26.90
2018,07,17,16,05,26.90
2018,07,17,16,06,26.80
2018,07,17,16,07,26.80
2018,07,17,16,08,26.80
2018,07,17,16,09,26.70
2018,07,17,16,10,26.60
2018,07,17,16,11,26.60
2018,07,17,16,12,26.60
2018,07,17,16,13,26.60
2018,07,17,16,14,26.60
2018,07,17,16,15,26.60
2018,07,17,16,16,26.60
2018,07,17,16,17,26.70
2018,07,17,16,18,26.70
2018,07,17,16,19,26.70
2018,07,17,16,20,26.70
2018,07,17,16,21,26.80
2018,07,17,16,22,26.80
2018,07,17,16,23,26.80
2018,07,17,16,24,26.80
2018,07,17,16,25,26.80
2018,07,17,16,26,26.90
2018,07,17,16,27,26.80
2018,07,17,16,28,26.80
2018,07,17,16,29,26.80
2018,07,17,16,30,26.90
2018,07,17,16,31,27.00
2018,07,17,16,32,27.10
2018,07,17,16,33,27.10
2018,07,17,16,34,27.10
2018,07,17,16,35,27.10
2018,07,17,16,36,27.20
2018,07,17,16,37,27.30
2018,07,17,16,38,27.30
2018,07,17,16,39,27.40
2018,07,17,16,40,27.50
2018,07,17,16,41,27.60
2018,07,17,16,42,27.70
2018,07,17,16,43,27.70
2018,07,17,16,44,27.70
2018,07,17,16,45,27.70
2018,07,17,16,46,27.80
2018,07,17,16,47,27.80
2018,07,17,16,48,27.80
2018,07,17,16,49,27.70
2018,07,17,16,50,27.80
2018,07,17,16,51,27.90
2018,07,17,16,52,27.90
2018,07,17,16,53,28.00
2018,07,17,16,54,28.00
2018,07,17,16,55,27.90
2018,07,17,16,56,28.00
2018,07,17,16,57,27.90
2018,07,17,16,58,27.90
2018,07,17,16,59,27.90
2018,07,17,17,00,27.90
2018,07,17,17,01,27.90
2018,07,17,17,02,27.90
2018,07,17,17,03,27.90
2018,07,17,17,04,27.90
2018,07,17,17,05,27.80
2018,07,17,17,06,27.80
2018,07,17,17,07,27.80
2018,07,17,17,08,27.80
2018,07,17,17,09,27.80
2018,07,17,17,10,27.80
2018,07,17,17,11,27.90
2018,07,17,17,12,27.90
2018,07,17,17,13,27.90
2018,07,17,17,14,27.90
2018,07,17,17,15,27.90
2018,07,17,17,16,27.90
2018,07,17,17,17,28.00
2018,07,17,17,18,28.00
2018,07,17,17,19,28.10
2018,07,17,17,20,28.10
2018,07,17,17,21,28.10
2018,07,17,17,22,28.10
2018,07,17,17,23,28.00
2018,07,17,17,24,27.80
2018,07,17,17,25,27.60
2018,07,17,17,26,27.60
2018,07,17,17,27,27.60
2018,07,17,17,28,27.60
2018,07,17,17,29,27.60
2018,07,17,17,30,27.70
2018,07,17,17,31,27.70
2018,07,17,17,32,27.80
2018,07,17,17,33,27.80
2018,07,17,17,34,27.80
2018,07,17,17,35,27.70
2018,07,17,17,36,27.70
2018,07,17,17,37,27.70
2018,07,17,17,38,27.70
2018,07,17,17,39,27.60
2018,07,17,17,40,27.50
2018,07,17,17,41,27.40
2018,07,17,17,42,27.40
2018,07,17,17,43,27.40
2018,07,17,17,44,27.60
2018,07,17,17,45,27.60
2018,07,17,17,46,27.60
2018,07,17,17,47,27.70
2018,07,17,17,48,27.60
2018,07,17,17,49,27.50
2018,07,17,17,50,27.40
2018,07,17,17,51,27.30
2018,07,17,17,52,27.30
2018,07,17,17,53,27.30
2018,07,17,17,54,27.20
2018,07,17,17,55,27.20
2018,07,17,17,56,27.10
2018,07,17,17,57,27.00
2018,07,17,17,58,26.90
2018,07,17,17,59,27.00
2018,07,17,18,00,27.10
2018,07,17,18,01,27.10
2018,07,17,18,02,27.10
2018,07,17,18,03,27.10
2018,07,17,18,04,27.00
2018,07,17,18,05,26.90
2018,07,17,18,06,26.90
2018,07,17,18,07,26.90
2018,07,17,18,08,26.80
2018,07,17,18,09,26.80
2018,07,17,18,10,26.80
2018,07,17,18,11,26.80
2018,07,17,18,12,26.80
2018,07,17,18,13,26.80
2018,07,17,18,14,26.80
2018,07,17,18,15,26.70
2018,07,17,18,16,26.70
2018,07,17,18,17,26.70
2018,07,17,18,18,26.70
2018,07,17,18,19,26.70
2018,07,17,18,20,26.70
2018,07,17,18,21,26.70
2018,07,17,18,22,26.80
2018,07,17,18,23,26.80
2018,07,17,18,24,26.80
2018,07,17,18,25,26.80
2018,07,17,18,26,26.70
2018,07,17,18,27,26.50
2018,07,17,18,28,26.40
2018,07,17,18,29,26.30
2018,07,17,18,30,26.20
2018,07,17,18,31,26.10
2018,07,17,18,32,26.10